EHI
0 0 0 0 0 0 0 0 0 0 0 0 0 0 0 0 0 0 0 0 0 0 0 0 0 0 0 0 0 0 0 0 0 0 0 0 1 1 5 11 13 9 7 5
0 0 0 0 0 0 0 0 0 0 0 0 0 0 0 0 0 0 0 0 0 0 0 0 0 0 0 0 0 0 0 0 0 0 0 0 0 0 3 7 10 11 11 10
0 0 0 0 0 0 0 0 0 0 0 0 0 0 0 0 0 0 0 0 0 0 0 0 0 0 0 0 0 0 0 0 0 0 0 1 1 0 1 3 6 9 12 13
0 0 0 0 0 0 0 0 0 0 0 0 0 0 0 0 0 0 0 0 0 0 0 0 0 0 0 0 0 0 0 0 0 0 1 1 2 1 1 2 3 6 9 12
0 0 0 0 0 0 0 0 0 0 0 0 0 0 0 0 0 0 0 0 0 0 0 0 0 0 0 0 0 0 0 0 0 0 1 2 3 2 2 3 3 6 9 12
0 0 0 0 0 0 0 0 0 0 0 0 0 0 0 0 0 0 0 0 0 0 0 0 0 0 0 0 0 0 0 0 0 0 1 2 2 1 2 4 5 7 10 12
0 0 0 0 0 0 0 0 0 0 0 0 0 0 0 0 0 0 0 0 0 0 0 0 0 0 0 0 0 0 0 0 0 0 1 1 1 0 2 4 5 6 7 9
0 0 0 0 0 0 0 0 0 0 0 0 0 0 0 0 0 0 0 0 0 0 0 0 0 0 0 0 0 0 0 0 0 0 0 0 0 0 1 3 4 3 3 4
0 0 0 0 0 0 0 0 0 0 0 0 0 0 0 0 0 0 0 0 0 0 0 0 0 0 0 0 0 0 0 0 0 0 0 0 0 0 0 1 2 1 1 1
0 0 0 0 0 0 0 0 0 0 0 0 0 0 0 0 0 0 0 0 0 0 0 0 0 0 0 0 0 0 0 0 0 0 0 0 0 0 0 0 0 0 0 0
0 0 0 0 0 0 0 0 0 0 0 0 0 0 0 0 0 0 0 0 0 0 0 0 0 0 0 0 0 0 0 0 0 0 0 0 0 0 0 0 0 0 0 0
0 0 0 0 0 0 0 0 0 0 0 0 0 0 0 0 0 0 0 0 0 0 0 0 0 0 0 0 0 0 0 0 0 0 0 0 0 0 0 0 0 0 0 0
0 0 0 0 0 0 0 0 0 0 0 0 0 0 0 0 0 0 0 0 0 0 0 0 0 0 0 0 0 0 0 0 0 0 0 0 0 0 0 0 0 0 0 0
0 0 0 0 0 0 0 0 0 0 0 0 0 0 0 0 0 0 0 0 0 0 0 0 0 0 0 0 0 0 0 0 0 0 0 0 0 0 0 0 0 0 0 0
0 0 0 0 0 0 0 0 0 0 0 0 0 0 0 0 0 0 0 0 0 0 0 0 0 0 0 0 0 0 0 0 0 0 0 0 0 0 0 0 0 0 0 0
0 0 0 0 0 0 0 0 0 0 0 0 0 0 0 0 0 0 0 0 0 0 0 0 0 0 0 0 0 0 0 0 0 0 0 0 0 0 0 0 0 0 0 0
0 0 0 0 0 0 0 0 0 0 0 0 0 0 0 0 0 0 0 0 0 0 0 0 0 0 0 0 0 0 0 0 0 0 0 0 0 0 0 0 0 0 0 0
0 0 0 0 0 0 0 0 0 0 0 0 0 0 0 0 0 0 0 0 0 0 0 0 0 0 0 0 0 0 0 0 0 0 0 0 0 0 0 0 0 0 0 0
0 0 0 0 0 0 0 0 0 0 0 0 0 0 0 0 0 0 0 0 0 0 0 0 0 0 0 0 0 0 0 0 0 0 0 0 0 0 0 0 0 0 0 0
0 0 0 0 0 0 0 0 0 0 0 0 0 0 0 0 0 0 0 0 0 0 0 0 0 0 0 0 0 0 0 0 0 0 0 0 0 0 0 0 0 0 0 0
0 0 0 0 0 0 0 0 0 0 0 0 0 0 0 0 0 0 0 0 0 0 0 0 0 0 0 0 0 0 0 0 0 0 0 0 0 0 0 0 0 0 0 0
0 0 0 0 0 0 0 0 0 0 0 0 0 0 0 0 0 0 0 0 0 0 0 0 0 0 0 0 0 0 0 0 0 0 0 0 0 0 0 0 0 0 0 0
0 0 0 0 0 0 0 0 0 0 0 0 0 0 0 0 0 0 0 0 0 0 0 0 0 0 0 0 0 0 0 0 0 0 0 0 0 0 0 0 0 0 0 0
0 0 0 0 0 0 0 0 0 0 0 0 0 0 0 0 0 0 0 0 0 0 0 0 0 0 0 0 0 0 0 0 0 0 0 0 0 0 0 0 0 0 0 0
0 0 0 0 0 0 0 0 0 0 0 0 0 0 0 0 0 0 0 0 0 0 0 0 0 0 0 0 0 0 0 0 0 0 0 0 0 0 0 0 0 0 0 0
0 0 0 0 0 0 0 0 0 0 0 0 0 0 0 0 0 0 0 0 0 0 0 0 0 0 0 0 0 0 0 0 0 0 0 0 0 0 0 0 0 0 0 0
Wind_Speed
5 6 8 8 7 4 3 3 2 6 4 5 9 9 7 8 11 13 13 14 15 15 15 15 14 13 13 12 12 11 10 9 7 6 6 5 5 5 5 6 9 11 11 11
6 8 6 4 2 2 3 3 4 7 5 4 8 8 6 7 11 12 14 15 16 17 17 17 16 14 14 13 13 12 10 9 8 6 6 5 6 5 6 6 8 10 11 12
9 7 3 3 4 1 2 2 2 5 6 5 5 6 5 6 9 12 13 14 15 15 17 17 17 16 15 14 14 11 11 10 9 8 6 6 5 5 4 5 5 7 9 11
10 5 3 4 6 5 2 3 1 6 7 4 4 3 6 6 9 13 14 14 15 15 15 16 16 17 16 15 14 13 11 10 9 8 6 7 6 5 5 5 5 6 7 9
7 6 6 5 5 6 3 2 3 5 5 5 1 5 6 5 11 14 14 14 14 15 15 15 16 16 16 15 13 12 11 9 8 8 7 7 6 5 5 5 4 4 3 4
8 4 6 6 2 3 0 4 5 5 6 5 2 4 4 7 11 13 13 14 14 14 15 15 15 15 15 14 12 11 11 9 8 8 7 6 6 6 5 5 3 1 0 1
7 6 4 4 2 2 4 6 5 7 6 2 2 1 5 7 8 9 11 12 13 13 14 14 15 16 16 16 14 12 11 10 9 9 8 7 6 6 6 5 4 3 2 2
5 5 6 6 5 4 2 6 6 5 1 4 3 0 5 5 5 7 9 10 12 13 13 13 14 13 14 15 14 13 12 10 10 9 8 8 7 5 5 6 5 5 4 4
2 6 4 5 5 4 1 2 4 4 1 2 3 3 5 3 6 8 9 10 11 12 12 13 12 12 13 13 13 13 12 12 11 10 9 9 9 8 7 6 6 5 5 4
2 6 4 1 3 5 5 3 4 4 4 1 3 1 2 5 6 7 9 10 11 11 12 12 11 11 10 10 11 12 12 12 11 11 9 8 9 9 8 7 8 7 7 6
0 4 5 3 4 6 1 1 1 0 3 4 1 3 4 3 4 6 7 8 10 10 10 10 10 9 10 10 10 11 11 11 11 11 10 10 9 9 9 9 9 8 8 7
1 1 5 5 4 3 3 3 3 3 2 2 1 3 4 1 2 3 5 6 8 9 9 9 9 9 9 10 10 10 10 10 10 9 9 9 9 9 9 9 9 9 8 8
3 4 4 6 6 4 1 2 1 2 1 1 1 4 5 2 1 1 3 5 6 7 8 9 9 9 9 9 9 9 9 10 9 9 9 10 10 10 10 10 9 9 9 9
3 0 3 4 5 3 3 3 3 4 2 1 1 1 3 2 2 1 1 4 5 6 7 9 9 8 8 7 8 8 8 8 9 9 9 10 9 9 10 10 10 10 10 10
4 3 4 4 3 2 2 4 5 5 4 4 0 2 2 2 2 2 2 3 4 5 7 9 10 9 7 7 7 7 7 7 7 8 9 9 8 8 8 9 9 9 10 10
3 4 5 5 4 4 7 8 8 7 6 6 5 5 3 3 4 4 4 4 4 5 7 9 10 10 9 7 6 5 6 6 7 8 8 8 7 7 8 8 9 10 10 10
5 5 4 3 3 6 8 9 12 8 8 8 7 4 6 6 5 5 4 4 5 5 7 8 9 9 8 7 6 6 6 5 6 7 8 7 7 7 7 7 8 9 9 10
4 4 3 3 4 5 5 3 7 9 9 11 7 5 7 5 4 4 5 6 5 5 6 8 9 9 8 7 5 3 3 3 5 7 7 7 6 6 6 7 7 8 8 8
3 4 4 4 4 5 3 6 7 8 8 13 14 10 9 6 5 7 7 7 5 5 6 7 7 8 8 7 6 4 3 3 5 6 6 6 6 6 6 7 7 7 7 7
2 5 5 4 6 3 3 7 7 5 7 10 15 14 12 10 7 5 6 6 5 4 5 5 6 7 7 7 6 5 4 4 5 5 5 5 6 6 6 6 6 6 6 6
6 6 7 7 6 5 4 9 10 7 1 8 14 15 14 13 5 6 6 5 4 3 3 4 5 5 5 6 5 4 5 5 4 4 4 4 5 5 5 5 5 5 5 6
7 6 7 6 7 3 11 12 10 4 4 7 12 14 14 11 7 6 6 5 4 3 2 3 4 4 4 5 5 4 5 4 3 3 3 4 4 4 4 5 5 5 5 5
7 6 3 7 4 4 13 10 7 3 6 7 11 13 14 12 11 9 7 6 5 4 2 2 3 3 3 4 4 5 4 2 3 4 4 3 4 4 4 4 5 4 5 5
6 5 6 8 9 8 12 13 9 7 7 7 11 13 14 13 12 10 8 7 6 5 3 2 3 2 2 3 3 3 2 1 3 3 3 3 2 3 3 3 3 4 5 5
5 8 7 9 9 6 11 16 16 12 9 7 11 13 14 13 12 11 9 8 6 5 4 4 3 2 2 2 2 2 1 1 3 3 3 2 2 2 2 3 3 3 4 5
9 11 9 7 5 5 3 6 15 16 15 12 13 14 13 13 12 12 10 8 7 6 6 5 4 4 2 1 2 1 0 2 3 3 3 2 2 1 1 1 2 2 1 2
Wind_Direction
43 61 51 29 12 353 321 280 111 91 99 86 100 100 76 43 30 20 12 6 1 357 354 353 348 343 339 336 329 322 320 323 323 319 317 312 304 294 271 256 246 242 241 242
115 66 36 14 6 302 276 251 136 113 110 118 120 103 83 49 33 22 11 6 1 354 352 353 350 349 343 338 330 323 322 321 318 311 304 287 286 281 275 263 255 247 240 233
81 64 36 42 43 60 35 313 161 142 130 142 167 149 83 58 33 27 19 10 5 359 353 351 350 348 343 341 335 325 321 315 312 309 301 296 289 277 269 266 262 257 249 236
80 64 61 65 46 341 148 51 168 176 198 152 246 218 90 28 26 21 15 9 5 360 355 352 350 348 346 344 338 328 321 318 318 310 302 302 298 298 299 292 276 264 251 241
94 59 41 43 34 347 29 357 229 208 215 186 179 269 94 29 14 10 8 5 3 358 354 354 353 351 349 346 343 336 329 326 325 321 313 305 301 301 300 294 281 269 254 243
96 79 33 21 30 0 251 168 154 186 216 213 37 302 64 27 3 358 1 2 3 360 357 357 358 356 352 350 349 347 342 341 341 338 336 333 330 331 333 333 333 336 344 244
122 89 61 0 261 141 222 225 207 197 208 118 69 290 60 30 9 360 357 360 3 3 3 2 3 0 358 356 356 354 355 352 354 353 352 354 357 358 4 360 8 27 37 31
172 106 48 24 2 348 3 289 303 306 343 117 174 48 80 42 18 8 8 6 8 13 11 8 7 5 2 0 1 4 3 0 2 3 2 7 11 10 13 17 22 31 34 33
137 102 96 49 25 325 286 32 339 311 349 208 132 121 127 62 27 19 14 14 14 13 13 12 10 8 6 3 5 7 6 9 9 9 13 14 14 18 19 23 26 29 35 37
69 119 100 127 202 68 15 348 259 272 282 262 143 137 60 27 17 14 14 13 10 7 9 10 10 8 6 4 5 12 15 14 13 15 20 20 17 17 18 24 29 29 32 37
248 129 125 139 34 18 25 165 358 332 325 306 306 90 62 16 3 357 3 6 4 5 5 7 8 8 8 10 11 15 15 15 16 16 18 23 23 23 26 27 28 27 29 33
6 268 114 94 75 7 17 9 302 303 97 331 307 108 103 351 329 337 351 1 4 3 5 8 10 11 14 13 15 18 17 18 16 16 20 27 29 29 32 32 29 32 34 34
170 232 173 166 172 182 133 66 346 328 199 223 276 107 134 208 229 294 346 354 359 3 8 13 13 12 12 11 13 21 18 18 16 15 21 29 30 31 33 35 33 34 35 32
244 214 326 18 68 124 160 177 222 262 264 229 239 149 170 195 207 215 313 340 348 359 6 8 5 7 9 9 9 21 22 16 15 18 22 26 30 33 36 39 36 38 39 36
247 125 107 95 113 184 222 211 213 240 263 277 204 226 214 192 208 228 269 302 324 349 359 1 356 357 360 6 6 17 20 16 17 22 25 24 28 37 38 41 39 39 40 40
218 160 166 177 196 243 255 235 223 234 236 237 240 238 203 194 210 228 237 264 296 329 345 349 348 351 356 357 358 8 18 20 19 26 28 27 28 36 36 36 35 34 35 34
182 191 226 204 192 258 250 221 208 213 213 215 221 194 168 197 212 229 234 250 277 313 329 338 344 348 350 350 347 2 12 14 23 28 30 30 30 33 30 32 32 29 29 30
195 203 251 267 240 254 87 100 198 216 223 216 221 188 190 201 206 223 234 245 265 295 320 335 339 344 348 349 346 353 359 14 29 34 34 32 31 33 29 28 29 26 26 28
256 223 247 265 276 277 187 185 192 213 240 212 212 204 196 198 218 220 216 229 253 290 312 323 330 336 346 358 354 343 24 32 39 40 36 32 33 33 29 27 24 22 19 21
192 238 252 251 272 268 118 145 172 210 247 198 199 199 189 188 212 170 168 200 228 267 303 321 326 337 357 2 354 353 27 44 51 49 43 39 36 36 33 29 21 22 21 21
191 206 230 243 262 268 123 145 169 215 45 159 187 191 187 197 201 123 156 187 215 256 294 309 320 344 360 354 350 8 37 51 67 71 59 51 47 46 36 28 26 22 27 24
209 203 210 215 234 251 142 163 202 236 102 169 183 186 188 194 183 164 182 197 213 233 265 305 321 349 1 357 349 20 42 57 102 107 87 71 55 47 47 42 33 30 25 29
223 226 229 227 257 55 178 199 213 228 197 183 184 184 186 190 190 194 199 204 213 226 237 284 317 332 359 15 4 16 45 86 142 139 118 100 85 64 44 39 38 35 29 25
202 207 238 255 257 236 215 224 219 216 216 193 187 184 187 191 192 195 199 202 207 213 217 245 277 305 11 23 16 12 33 157 169 151 136 131 100 82 68 40 32 30 21 18
206 185 222 249 262 245 228 223 217 209 211 198 192 189 191 193 194 195 197 200 205 206 206 221 251 291 322 345 9 22 20 196 177 164 159 143 111 78 51 60 36 16 40 20
197 197 205 238 232 218 204 195 205 204 204 199 192 192 196 198 197 196 198 196 200 205 207 215 227 239 255 294 336 19 299 224 204 179 170 166 151 128 46 49 109 141 336 38